Starlink 31361

operational
NORAD ID: 58974 Int'l Des: 2024-031 Owner: SPXS Country: US Constellation: starlink
LEOCIRCULAR

Starlink 31361について

説明を読み込み中...

リアルタイム位置

3D地球を読み込み中...

次回通過

高度履歴

Altitude vs Time

uPlot chart will show altitude changes over time

軌道要素

1 58974U 24031K 25258.58038164 .00003195 00000-0 11996-3 0 9997
2 58974 53.1609 30.0189 0000884 59.3913 300.7175 15.30198532 89726
Epoch: Sep 15, 2025 • Age: 12 hours

現在のステータス

高度 476.2 km
速度 7.63 km/s
衛星直下点 1.56°N, 173.83°W
打ち上げ日 Feb 15, 2024
運用期間 1.5 years
タイプ internet

技術仕様

分類 Payload
質量 730.00 kg
乾燥質量 700.00 kg
総質量 730.00 kg
長さ 0.30 m
直径 4.10 m
スパン 29.00 m
形状 Box + pan
製造者 SPXS
バスタイプ Starlink V2M
フェーズステータス In Orbit
所有者/国 SPXS/US

大規模コンステレーション

Loading constellations...